Theta_e
354 355 356 356 356 355 355 355 355 355 355 355 355 356 356 357 358 358 358 359 360 359 361 361 359 359 362 362 361 361 361 360 358 356 356 355 353 351 349 349 349 349
354 354 356 355 356 356 356 355 355 354 356 355 354 356 358 358 358 358 358 359 360 358 360 361 361 362 363 363 363 362 361 360 358 357 357 357 355 353 351 350 350 349
354 353 354 354 354 355 354 354 355 354 354 355 354 355 357 356 357 358 358 359 359 358 358 360 361 362 362 364 364 362 362 361 359 357 357 357 356 355 353 351 350 350
356 354 353 352 350 352 353 353 354 354 353 353 353 354 354 354 356 358 358 358 358 358 358 359 360 360 361 363 363 360 361 362 360 360 360 359 357 355 353 352 351 350
357 355 353 352 350 351 353 353 353 353 352 352 354 354 355 355 355 356 358 358 358 358 358 359 360 359 360 362 362 361 361 360 359 361 361 360 359 357 354 353 352 351
358 356 354 353 353 352 354 354 353 352 351 352 353 353 354 356 355 354 355 356 356 356 357 357 358 358 358 360 361 361 360 359 358 361 361 360 359 358 355 354 354 353
358 357 355 354 354 353 354 354 354 353 351 351 352 353 353 354 354 353 354 354 353 353 355 356 357 358 358 359 361 361 361 360 359 361 362 360 359 359 358 356 355 355
357 358 357 355 353 354 354 354 354 354 352 351 351 352 352 352 352 353 353 354 353 352 354 355 357 359 358 358 360 360 360 360 359 360 361 359 358 359 359 358 357 357
357 357 357 356 354 353 353 352 352 353 353 353 351 351 352 351 351 350 352 355 354 353 356 356 357 360 358 357 358 360 360 359 358 359 360 359 358 358 358 357 358 358
357 357 357 356 354 353 352 351 350 351 353 353 351 349 349 351 351 350 351 356 355 354 356 357 357 359 358 356 357 358 358 358 358 359 360 360 358 357 357 357 357 358
357 356 356 356 354 353 352 351 349 349 351 353 352 349 347 350 352 351 352 355 355 352 354 357 357 358 357 355 354 356 357 357 357 358 359 359 359 358 358 357 357 357
357 356 355 355 355 353 352 351 351 349 350 351 352 350 348 348 351 352 352 354 354 352 352 356 357 357 358 357 354 353 355 355 354 356 357 358 358 359 358 358 358 358
356 356 355 354 354 354 353 352 352 350 349 351 352 351 348 347 349 352 353 353 353 352 350 353 357 357 358 359 357 353 354 356 354 353 355 356 357 357 357 357 357 357
355 356 356 354 355 355 354 353 352 351 351 351 352 352 350 348 347 350 353 353 353 352 350 351 355 357 356 358 358 354 353 355 356 354 352 353 355 355 354 354 355 356
356 356 356 356 355 356 356 355 353 353 353 352 353 352 351 349 347 347 350 352 353 353 352 349 351 355 356 356 357 357 353 352 354 356 353 351 352 353 352 352 352 353
357 357 357 357 356 356 356 356 355 354 353 353 354 354 352 351 351 349 348 349 352 354 353 351 350 352 354 351 350 353 354 352 352 355 356 354 352 351 351 350 349 350
358 359 358 358 357 357 357 357 356 355 354 354 354 355 354 353 353 352 350 349 351 353 354 353 351 351 352 349 343 343 348 354 354 354 356 356 354 352 351 349 348 347
359 359 359 359 359 358 358 358 357 356 355 355 355 355 356 355 354 354 353 351 350 351 353 354 352 351 350 348 343 338 339 347 352 353 354 355 355 353 351 350 348 347
358 358 358 358 359 359 358 358 358 357 356 356 356 356 356 356 356 355 355 354 352 351 351 352 353 353 351 348 345 340 337 340 346 350 351 352 353 353 352 352 351 351
357 356 355 357 359 359 359 359 359 358 357 356 356 356 356 357 357 356 356 356 355 353 353 352 352 353 353 350 347 345 341 340 343 347 347 348 351 352 353 353 353 353
358 357 356 357 358 359 359 359 359 359 358 356 356 356 357 358 357 357 357 357 356 356 354 354 353 352 352 351 350 348 346 344 344 347 347 346 348 351 353 354 354 355
355 357 357 357 357 359 359 359 359 359 359 358 356 355 356 358 358 357 357 357 356 356 356 355 355 353 352 352 350 350 349 346 346 348 349 349 348 350 353 355 356 356
350 354 357 358 358 358 358 359 359 359 360 360 358 357 356 356 358 358 358 357 356 357 357 356 356 355 354 353 351 350 350 348 347 348 351 351 351 351 353 355 357 358
345 349 353 357 359 359 358 358 359 358 359 359 359 358 357 356 357 358 358 358 358 357 357 357 357 356 355 354 353 352 351 349 349 350 352 353 353 353 353 354 356 357
341 345 349 352 355 357 357 357 357 358 358 359 359 359 358 357 357 357 358 359 358 358 357 357 357 357 356 355 354 353 352 350 351 352 354 355 355 355 355 355 356 357
338 341 344 347 350 352 353 353 353 354 356 358 358 358 358 358 358 357 358 359 359 359 358 357 357 357 357 356 354 353 353 351 351 354 355 356 356 357 357 357 357 358
Wind_Speed
19 18 17 16 15 13 13 12 12 11 11 10 10 9 9 8 8 8 9 8 9 9 8 8 9 8 7 7 7 6 5 6 7 7 7 8 8 8 7 6 5 5
21 20 18 17 16 15 14 13 12 12 12 11 10 9 9 9 9 9 9 9 9 9 9 9 9 9 8 7 7 7 6 7 7 7 7 8 8 8 9 8 7 6
22 21 20 19 18 17 15 14 13 13 13 12 12 11 10 10 10 10 10 10 9 10 10 10 10 10 9 8 8 7 7 7 7 7 7 8 8 9 9 9 8 7
23 22 22 21 19 18 16 15 15 14 14 13 13 13 12 11 11 11 11 11 10 10 10 11 11 11 10 10 9 9 8 8 8 7 7 8 8 9 9 9 9 8
24 23 22 21 20 18 17 17 16 16 15 15 14 14 13 13 12 12 12 12 11 11 11 11 12 12 11 11 10 10 9 9 9 9 8 8 8 8 9 9 9 9
23 24 23 21 20 19 18 18 18 17 16 16 15 15 14 14 14 14 13 13 13 12 12 12 12 12 12 12 12 11 10 10 9 10 10 9 9 9 9 8 9 9
23 24 24 23 21 21 20 19 18 17 17 16 16 16 15 15 15 15 15 14 13 13 13 12 12 13 13 12 12 12 12 11 10 10 11 11 10 10 9 9 9 9
23 23 24 24 23 22 22 20 19 18 18 17 17 17 17 16 16 16 16 16 15 14 13 13 13 13 13 13 13 13 13 12 11 11 12 12 12 11 11 10 10 10
23 22 23 24 24 23 23 22 21 19 19 19 19 18 17 17 17 17 17 17 17 16 15 14 14 15 14 14 14 14 14 13 12 12 13 13 13 13 12 12 11 11
22 22 23 23 24 24 23 23 21 20 20 20 20 19 18 18 18 18 18 18 18 18 17 16 16 16 16 16 15 15 15 15 14 13 13 13 14 14 13 13 13 13
22 22 23 24 24 24 24 23 22 21 20 20 21 21 20 18 18 18 19 19 20 19 19 19 18 17 17 17 17 16 15 15 14 14 14 14 14 14 14 14 14 14
23 23 23 24 24 24 23 23 23 22 21 21 21 21 21 20 18 19 19 20 21 20 20 20 19 19 18 18 17 17 16 16 15 15 15 14 14 15 15 15 15 15
23 24 24 23 23 23 23 23 23 23 23 21 21 21 22 22 20 19 20 21 21 21 21 21 20 20 20 19 19 18 16 16 16 16 15 15 15 15 15 16 16 16
23 23 23 23 23 22 22 23 23 23 23 22 21 21 22 23 22 21 20 20 21 22 22 21 21 21 21 21 20 20 18 17 17 17 16 15 15 15 15 16 16 17
22 21 21 22 22 22 22 22 22 22 22 22 22 22 22 22 23 23 22 21 21 22 22 22 22 22 23 23 23 21 21 20 18 18 17 17 16 16 16 16 16 17
19 19 20 21 22 22 22 22 22 22 21 22 22 22 22 22 23 24 24 23 22 22 23 23 23 23 25 27 27 24 22 21 20 19 18 18 17 17 17 17 17 17
17 18 19 20 21 22 22 22 22 22 21 22 22 22 22 22 23 24 25 25 24 24 24 24 24 25 27 30 32 30 25 21 20 20 19 19 19 19 18 18 18 18
16 17 18 19 21 21 22 22 22 22 22 22 23 23 23 23 23 24 25 25 25 25 25 25 25 27 29 32 33 34 32 26 21 20 19 19 20 20 20 20 19 18
17 17 19 20 20 21 22 21 21 23 24 24 24 24 23 23 25 25 25 25 26 26 26 26 26 27 30 34 34 35 35 32 26 22 21 21 20 21 21 21 20 19
19 20 21 21 21 21 22 22 23 24 25 25 25 24 24 25 26 26 26 26 26 27 27 27 27 27 29 33 35 35 35 34 31 25 23 23 22 22 22 21 21 20
15 20 22 21 21 21 22 24 25 25 26 26 25 24 25 25 26 26 27 27 27 27 27 27 28 28 30 31 33 34 33 34 32 28 25 25 25 24 24 23 22 21
9 13 17 21 22 22 23 25 26 26 26 26 25 25 24 25 25 26 26 27 28 27 27 27 28 29 31 33 33 33 31 32 33 30 26 25 25 25 25 24 23 23
12 12 13 16 21 23 25 25 26 27 27 26 26 26 25 25 25 25 26 27 27 27 28 28 27 28 30 32 33 33 31 32 33 31 27 27 26 25 24 24 24 25
13 13 14 14 16 21 25 27 27 27 27 26 25 26 26 26 25 24 24 25 27 28 29 28 27 27 29 31 32 33 32 33 32 28 26 26 26 26 25 25 25 26
12 14 14 15 16 17 20 23 26 26 26 25 26 25 25 25 25 25 25 24 25 26 28 29 27 26 28 31 32 33 33 34 31 26 24 25 25 25 26 26 26 27
11 13 14 15 17 18 19 20 22 23 23 23 23 24 24 24 24 25 25 24 25 25 26 28 28 26 28 31 33 33 34 35 32 26 24 24 24 24 25 25 26 26
Wind_Direction
208 208 208 210 212 212 209 205 205 206 208 208 206 205 204 205 203 202 203 204 204 207 208 209 210 205 202 207 209 208 209 211 212 210 209 214 221 228 236 242 243 252
208 209 209 210 211 212 211 209 209 208 206 207 208 204 203 202 202 204 206 208 209 211 212 213 211 207 205 210 212 211 211 212 211 209 210 214 220 226 232 237 235 234
207 209 210 212 213 213 213 213 214 212 210 208 209 208 206 206 206 206 209 211 215 216 215 216 214 210 210 211 213 218 218 215 214 212 213 217 221 225 227 231 232 227
206 208 211 214 216 216 216 216 215 215 213 211 209 209 209 209 208 209 211 213 217 219 217 217 217 214 214 213 215 222 224 221 220 215 216 221 222 224 225 226 230 231
205 207 210 213 215 216 215 216 215 214 214 212 210 209 207 207 208 210 213 214 216 219 218 217 217 217 217 216 216 220 223 224 221 217 220 225 224 223 225 222 225 230
204 206 209 210 212 213 214 215 215 215 216 214 211 210 208 207 210 213 215 215 216 217 217 216 217 218 218 217 218 219 224 226 221 217 221 227 228 225 224 222 221 226
203 204 207 208 209 211 213 216 216 217 218 216 214 213 210 210 211 213 215 216 218 218 218 218 217 219 220 219 220 220 222 227 223 219 222 226 228 228 227 225 222 223
203 204 205 207 208 210 213 216 217 217 216 215 216 215 214 213 213 213 214 215 217 219 220 221 219 220 221 220 222 222 222 225 224 221 224 227 228 228 228 227 225 226
203 203 204 205 208 211 214 216 216 216 215 215 217 217 216 216 215 214 214 213 215 216 217 220 221 221 224 223 223 224 224 226 225 223 224 224 226 227 227 227 226 227
203 203 205 206 209 212 214 216 216 215 215 215 218 219 218 218 217 216 214 212 213 214 214 217 219 220 224 225 225 225 226 228 228 227 226 226 226 226 225 226 226 226
206 206 208 209 211 214 215 216 216 215 215 214 217 220 220 219 217 216 215 213 214 215 215 216 218 220 223 225 226 226 226 228 228 228 229 229 228 228 226 226 226 226
208 209 211 212 213 215 216 216 216 216 215 214 215 217 219 219 218 216 215 215 216 216 216 217 217 219 221 224 226 227 226 228 228 228 230 231 231 230 229 227 227 227
207 209 211 213 214 215 216 216 216 216 216 215 215 215 217 219 219 218 217 217 218 218 217 218 217 218 221 223 225 227 227 228 229 229 229 231 232 233 232 231 230 229
208 209 210 213 214 215 216 216 216 216 216 215 214 214 216 218 220 220 219 219 220 220 220 219 217 218 219 220 223 225 227 228 229 231 231 232 233 234 234 234 233 231
210 209 210 211 212 213 214 216 217 217 215 214 214 215 216 218 220 221 221 221 220 221 221 220 220 219 218 219 220 221 224 227 229 231 233 234 235 236 236 236 235 234
211 211 211 209 209 211 213 215 216 218 217 216 216 216 217 217 218 220 222 222 221 220 220 220 220 220 221 223 223 221 221 224 228 231 233 235 236 238 238 238 237 237
214 211 211 210 210 212 213 214 216 217 219 218 218 219 219 217 217 218 221 222 222 221 220 220 222 222 223 227 229 228 223 220 224 229 231 234 236 238 240 241 240 239
227 219 215 213 213 214 216 216 216 216 218 219 220 220 220 219 219 219 220 222 223 223 222 222 224 224 225 229 232 234 231 225 223 227 230 233 236 238 239 241 241 240
232 231 229 224 219 218 218 218 217 217 219 221 222 223 221 221 222 221 221 222 223 224 225 226 227 226 227 231 234 236 236 231 226 227 231 233 236 237 238 239 239 239
227 231 234 233 228 222 220 219 219 219 222 223 225 224 222 222 222 222 222 222 222 224 225 227 229 228 228 233 236 237 238 235 230 228 232 235 236 237 238 238 237 236
240 237 236 233 231 227 225 223 221 221 223 225 225 224 223 223 223 223 223 223 223 224 226 228 229 229 228 232 236 237 238 236 232 228 231 235 236 236 237 237 236 235
298 269 251 238 233 231 230 229 227 223 222 223 225 227 225 223 223 224 224 224 224 224 225 228 230 229 228 230 234 236 236 234 232 229 230 234 235 235 235 235 234 233
323 312 288 259 242 236 235 236 234 232 227 224 224 226 228 226 225 225 225 225 225 224 225 228 230 230 229 231 233 234 232 231 230 228 227 231 233 233 233 234 234 232
317 310 306 293 268 248 241 239 238 237 234 230 227 227 228 227 226 227 227 226 226 224 223 226 229 229 228 229 232 232 231 229 227 224 224 228 231 232 233 234 235 233
322 312 305 301 296 284 267 256 249 243 239 236 232 231 231 231 230 229 229 228 228 227 226 226 229 229 227 227 230 231 231 228 223 219 221 225 227 230 231 233 234 235
325 322 312 301 299 304 305 298 280 264 256 251 244 238 235 235 234 233 233 232 230 229 228 226 226 227 227 227 228 230 231 227 221 217 219 222 224 227 229 230 232 233